sat.trackr.live / text

‹ back to catalog

STARLINK-30551

NORAD 58083 · 2023-160J

PAYLOAD ACTIVE UNKNOWN

§ Identity

Operator
Country
US
Launch date
2023-10-18
Launch site
AFETR
Launch vehicle
Mass (kg)
RCS (m²)

Purposes: comms

External: N2YO · Heavens-Above · Gunter

§ Orbital elements

Epoch: 2026-05-24T23:28:52.394880Z

Period
94.27 min
Inclination
43.0021°
Eccentricity
0.0000937
Mean motion
15.27603881 rev/d
Perigee alt
482.3 km
Apogee alt
483.6 km
Semi-major
6,861.1 km
B*
1.3455e-4
RAAN
10.4114°
Arg perigee
264.1178°
Mean anomaly
95.9567°
Rev number
14,457

§ Raw data

STARLINK-305511 58083U 23160J   26144.97838420  .00003445  00000+0  13455-3 0  99902 58083  43.0021  10.4114 0000937 264.1178  95.9567 15.27603881144578

JSON: /api/v1/satellites/58083 · /tle

For live sub-satellite position, see the globe view (requires WebGL).

§ Visibility from observer

Set your observer location to see the next 7 days of passes ≥ 10°. The values pass through the URL so the page stays shareable.

No JS? Fill the form by hand. The geolocation button needs JavaScript.